Location: Chippewa Lake
(41.0698°N, 81.9010°W)
Time: 21:54:23
(UTC+00:00)

USA 281 - Pass Details

Date: 09 May 2021
Orbit: 1078 x 1081 km, 106.0° (Epoch: 14 June)

Event Time Altitude Azimuth Distance (km) Brightness Sun altitude
Exits shadow 07:30:24 47° 242° (WSW) 1,407 3.4 -24.6°
Maximum altitude 07:30:46 47° 252° (WSW) 1,399 3.4 -24.5°
Drops below altitude 10° 07:37:05 10° 325° (NW) 2,927 5.7 -23.9°
Sets 07:39:44 0° 332° (NNW) 3,887 6.5 -23.6°
